Showing default

TRANSIT 5B-1, 670

Orbit data source: Space-Track

TRANSIT 5B-1, 670 is a payload satellite owned by USN BuWeps (US) in LEO that was launched on Sat, 28 Sep 1963 UTC via a THOR ABLESTAR launch vehicle from the Air Force Western Test Range (AFWTR). Payload-class satellites include a variety of spacecraft equipped with specific instruments for various scientific and technological missions. These include communications satellites like Starlink; space stations such as the ISS; scientific satellites like the Hubble; Earth observation satellites from companies like Planet Labs, Umbra, and HawkEye 360; GPS; miniature CubeSats for education and research; and military/defense satellites.

Loading next visibility...
Identifier
670, 1963-038B
Orbit
LEO
Country
Flag of USUS
Related business
Manufacturer
APL
Mission
Spacecraft
Bus & Motor
TRANSIT 5, Unknown motor
Mass
69 kg wet, 69 kg dry
Launch date (UTC)
1963-09-28 (63 years ago)
Launch vehicle
THOR ABLESTAR
Launch site
Air Force Western Test Range (AFWTR)
Object type
Payload
Rocket body
Debris
Shape & HBR
Unknown
Radar Cross Section
Large (>1 m²)

Expand to show TLE details & history
Last TLE update: 1 day ago

TLE from 1 day ago
0 TRANSIT 5B-1
1 00670U 63038B   26191.36658702  .00000048  00000-0  65987-4 0  9990
2 00670  89.9652 332.8128 0040350 330.4144  29.4721 13.44684799 77309
Epoch: 2026-07-10T08:47Z
TLE epoch observation values (Epoch: 2026-07-10T08:47:53.118Z)
Latitude
-0.00001°
Longitude
-87.45371°
Altitude
1,068.608 km
Speed
7.33 km/s
True Right ascension
22h 11m 15s
True Declination
0° 00' 00"
Sunlit
Object was in full shadow at epoch
Visualization orbit readout
Latitude
Unknown
Longitude
Unknown
Altitude
Unknown
Speed
Unknown
Apparent Right ascension
Unknown
Apparent Declination
Unknown
Sunlit
N/A
Visualization observer readout
Local Sidereal Time
02:55:29
Azimuth
Unknown
Elevation
Unknown
Doppler factor
Unknown
Orbital elements
Apogee altitude
1,119.066 km
Perigee altitude
1,058.806 km
Semi-major axis
7,467.073 km
Eccentricity
0.00404
Inclination
89.9652°
RAAN
332.8128°
Arg. of periapsis
330.4144°
True anomaly
29.70059°
Mean anomaly
29.4721°
Eccentric anomaly
29.58625°
Mean motion
3.3637 °/min
Orbital period
107.02 mins
BSTAR
0.000065987
Loading maneuver chart data...
Computing Atmospheric mass density...

Documentation

Showing up to 5 results
|